Penticton, British Columbia

1:34 AM PDT on May 27, 2017 (GMT -0700)
Penticton

Weather History for CYYF - November, 2012

Change the Weather History Date:

Monday, November 12, 2012

  Actual Average Record
Temperature  
Mean Temperature 33 °F -  
Max Temperature 39 °F 40 °F 60 °F (1999)
Min Temperature 27 °F 29 °F 11 °F (2014)
Degree Days  
Heating Degree Days 32    
Moisture  
Dew Point 32 °F    
Average Humidity 86    
Maximum Humidity 93    
Minimum Humidity 77    
Precipitation  
Precipitation 0.12 in 0.04 in - ()
Sea Level Pressure  
Sea Level Pressure 30.25 in    
Wind  
Wind Speed 9 mph ()    
Max Wind Speed 17 mph    
Max Gust Speed 23 mph    
Visibility 11.9 miles    
Events Snow    
Averages and records for this station are not official NWS values.
T = Trace of Precipitation, MM = Missing Value Source: Averaged Metar Reports

Daily Weather History Graph

Daily Weather History Graph

Search for Another Location

Airport or City:

Trip Planner

Search our weather history database for the weather conditions in past years. The results will help you decide how hot, cold, wet, or windy it might be!

Date:

Astronomy

Nov. 12, 2012 Rise Set
Actual Time 7:05 AM PST 4:19 PM PST
Civil Twilight 6:30 AM PST 4:53 PM PST
Nautical Twilight 5:52 AM PST 5:32 PM PST
Astronomical Twilight 5:14 AM PST 6:10 PM PST
Moon 5:32 AM PST (11/12) 3:30 PM PST (11/12)
Length of Visible Light 10h 23m
Length of Day
9h 13m
Waning Crescent, 2% of the Moon is Illuminated
Nov 12
Waning Crescent
Nov 13
New
Nov 20
First Quarter
Nov 28
Full
Dec 6
Last Quarter

Hourly Weather History & Observations

Time (PST) Temp. Windchill Dew Point Humidity Pressure Visibility Wind Dir Wind Speed Gust Speed Precip Events Conditions
12:00 AM 32.0 °F 23.0 °F 30.2 °F 93% 30.28 in 2.0 mi SSE 11.5 mph - N/A Snow Light Snow
1:00 AM 32.0 °F 23.6 °F 30.2 °F 93% 30.27 in 2.5 mi SE 10.4 mph - N/A Snow Light Snow
2:00 AM 33.8 °F 27.0 °F 30.2 °F 87% 30.27 in 5.0 mi SE 8.1 mph - N/A Snow Light Snow
3:00 AM 33.8 °F 27.0 °F 30.2 °F 87% 30.26 in 3.0 mi SE 8.1 mph - N/A Snow Light Snow
4:00 AM 34 °F - 30 °F 80% 30.25 in 6 mi SE 8.1 mph - - Snow Light Snow
4:00 AM 33.8 °F 26.4 °F 30.2 °F 87% 30.25 in 6.0 mi SE 9.2 mph - N/A Snow Light Snow
5:00 AM 33.8 °F 28.6 °F 30.2 °F 87% 30.25 in 6.0 mi ESE 5.8 mph - N/A Snow Light Snow
6:00 AM 33.8 °F - 30.2 °F 87% 30.25 in 6.0 mi Calm Calm - N/A Snow Light Snow
7:00 AM 33.8 °F 26.4 °F 32.0 °F 93% 30.25 in 6.0 mi SSE 9.2 mph - N/A Snow Light Snow
7:50 AM 33.8 °F 27.0 °F 32.0 °F 93% 30.25 in 15.0 mi SE 8.1 mph - N/A   Overcast
8:00 AM 33.8 °F 27.7 °F 32.0 °F 93% 30.25 in 15.0 mi SE 6.9 mph - N/A   Overcast
8:22 AM 35.6 °F 28.0 °F 32.0 °F 87% 30.26 in 10.0 mi SSE 10.4 mph - N/A Snow Light Snow Showers
8:51 AM 33.8 °F 26.4 °F 32.0 °F 93% 30.25 in 15.0 mi SSE 9.2 mph - N/A   Overcast
9:00 AM 35.6 °F 29.9 °F 32.0 °F 87% 30.26 in 15.0 mi SSE 6.9 mph - N/A   Overcast
10:00 AM 36 °F - 32 °F 81% 30.25 in 15 mi SE 9.2 mph - -   Overcast
10:00 AM 35.6 °F 28.6 °F 32.0 °F 87% 30.25 in 15.0 mi SE 9.2 mph - N/A   Overcast
11:00 AM 37.4 °F 30.3 °F 32.0 °F 81% 30.25 in 15.0 mi South 10.4 mph - N/A   Overcast
12:00 PM 37.4 °F 29.3 °F 32.0 °F 81% 30.24 in 15.0 mi SSE 12.7 mph - N/A   Overcast
1:00 PM 37.4 °F 28.9 °F 33.8 °F 87% 30.23 in 15.0 mi SSE 13.8 mph - N/A   Overcast
2:00 PM 39.2 °F 31.2 °F 33.8 °F 81% 30.23 in 15.0 mi SSE 13.8 mph - N/A   Overcast
3:00 PM 39.2 °F 31.6 °F 33.8 °F 81% 30.24 in 15.0 mi SSE 12.7 mph 20.7 mph N/A   Overcast
4:00 PM 38 °F - 33 °F 77% 30.24 in 15 mi South 13.8 mph - -   Mostly Cloudy
4:00 PM 39.2 °F 31.2 °F 33.8 °F 81% 30.24 in 15.0 mi South 13.8 mph - N/A   Mostly Cloudy
5:00 PM 37.4 °F 29.8 °F 33.8 °F 87% 30.24 in 15.0 mi South 11.5 mph 18.4 mph N/A   Mostly Cloudy
6:00 PM 39.2 °F 32.0 °F 33.8 °F 81% 30.25 in 15.0 mi South 11.5 mph - N/A   Mostly Cloudy
7:00 PM 37.4 °F 29.3 °F 33.8 °F 87% 30.26 in 15.0 mi South 12.7 mph - N/A   Mostly Cloudy
8:00 PM 37.4 °F 28.9 °F 33.8 °F 87% 30.25 in 15.0 mi South 13.8 mph 21.9 mph N/A   Mostly Cloudy
9:00 PM 37.4 °F 27.8 °F 33.8 °F 87% 30.26 in 15.0 mi SSE 17.3 mph 23.0 mph N/A   Mostly Cloudy
10:00 PM 38 °F - 33 °F 77% 30.27 in 15 mi SSE 10.4 mph - -   Mostly Cloudy
10:00 PM 39.2 °F 31.2 °F 33.8 °F 81% 30.27 in 15.0 mi South 13.8 mph 20.7 mph N/A   Mostly Cloudy
11:00 PM 37.4 °F 29.8 °F 33.8 °F 87% 30.27 in 15.0 mi SSE 11.5 mph 18.4 mph N/A   Mostly Cloudy